{"data":{"norad_id":64854,"epoch":"2026-09-20T13:05:50.841312Z","epoch_age_seconds":120375,"freshness":"FRESH","line1":"1 64854U 25152N   26263.54572733  .00019586  00000+0  60739-3 0  9993","line2":"2 64854  97.2840 114.1501 0002455  76.9003 283.2513 15.33445545 64837","mean_motion":15.33445545,"eccentricity":0.0002455,"inclination_deg":97.284,"raan_deg":114.1501,"arg_perigee_deg":76.9003,"mean_anomaly_deg":283.2513,"bstar":0.00060739,"rev_number":6483,"period_min":93.906171281746,"perigee_km":463.8614298573,"apogee_km":467.2216760268,"semimajor_km":6843.6785529421,"source":"CELESTRAK","updated_at":"2026-09-21T09:00:35.450828Z"}}